Home > Weather > Osøyro > Past weeks

Flag for Norway Weather for the Past 2 Weeks in Osøyro, Norway

Now
43 °F

Partly sunny.


Feels Like: 40 °F
Forecast: 38 / 50 °F
Wind: 5 mph from East

Location: Bergen / Flesland

Current Time: Apr 30, 2016 at 9:27:56 AM

Latest Report: Apr 30, 2016 at 8:20 AM


Visibility: N/A

Pressure: 29.92 "Hg

Humidity: 57%

Dew Point: 28 °F

Location of OsøyroLocation

Historic Weather in Osøyro — Graph

°F

Osøyro Temperature Yesterday

Maximum temperature yesterday: 48 °F (at 2:50 PM)
Minimum temperature yesterday: 34 °F (at 5:20 AM)
Average temperature yesterday: 42 °F

High & Low Weather Summary for the Past Weeks

 TemperatureHumidityPressure
High50 °F (Apr 26, 1:50 PM)100% (Apr 17, 11:50 PM)30.36 "Hg (Apr 17, 11:50 PM)
Low28 °F (Apr 16, 6:50 AM)20% (Apr 26, 4:50 PM)29.42 "Hg (Apr 18, 4:20 PM)
Average41 °F69%29.80 "Hg
* Reported Apr 15 7:20 AM — Apr 30 7:50 AM, Osøyro, Weather by CustomWeather, © 2016

Note: Actual official high and low records may vary slightly from our data, if they occured in-between our weather recording intervals... More about our weather records

Advertising

Osøyro Weather History for the Previous 24 Hours

Scroll right to see more
 ConditionsComfort  
Time TempWeatherWind HumidityBarometerVisibility
7:50 AM
Sat, Apr 30
43 °FScattered clouds.5 mph61%29.92 "HgN/A
7:20 AM41 °FScattered clouds.5 mph66%29.92 "HgN/A
6:50 AM39 °FScattered clouds.5 mph75%29.92 "HgN/A
6:20 AM37 °FPassing clouds.5 mph81%29.92 "HgN/A
5:50 AM39 °FPassing clouds.3 mph75%29.89 "HgN/A
5:20 AM37 °FPassing clouds.3 mph87%29.89 "HgN/A
4:50 AM39 °FPartly cloudy.3 mph81%29.89 "HgN/A
3:50 AM39 °FPartly cloudy.3 mph81%29.89 "HgN/A
2:50 AM37 °FPassing clouds.5 mph87%29.89 "HgN/A
1:50 AM39 °FPassing clouds.5 mph81%29.86 "HgN/A
12:50 AM43 °FPartly cloudy.8 mph71%29.86 "HgN/A
12:20 AM41 °FPartly cloudy.8 mph76%29.86 "HgN/A
11:50 PM
Fri, Apr 29
41 °FPartly cloudy.6 mph81%29.83 "HgN/A
11:20 PM41 °FPartly cloudy.8 mph76%29.83 "HgN/A
10:50 PM43 °FPartly cloudy.7 mph71%29.83 "HgN/A
10:20 PM43 °FBroken clouds.5 mph76%29.83 "HgN/A
9:50 PM43 °FScattered showers. Broken clouds.6 mph71%29.80 "HgN/A
9:20 PM43 °FScattered showers. Broken clouds.5 mph71%29.80 "HgN/A
8:50 PM43 °FScattered showers. Broken clouds.3 mph71%29.80 "HgN/A
8:20 PM43 °FScattered showers. Broken clouds.6 mph71%29.80 "HgN/A
7:50 PM43 °FScattered showers. Broken clouds.9 mph71%29.80 "HgN/A
7:20 PM45 °FScattered showers. Partly sunny.8 mph66%29.80 "HgN/A
6:50 PM45 °FLight rain. Broken clouds.10 mph71%29.80 "HgN/A
6:20 PM46 °FLight rain. Partly sunny.16 mph62%29.77 "HgN/A
5:50 PM46 °FScattered showers. Scattered clouds.6 mph62%29.77 "HgN/A
5:20 PM48 °FScattered showers. Scattered clouds.7 mph58%29.74 "HgN/A
4:50 PM48 °FScattered clouds.8 mph58%29.74 "HgN/A
4:20 PM48 °FScattered clouds.8 mph58%29.74 "HgN/A
3:50 PM48 °FScattered showers. Scattered clouds.9 mph62%29.74 "HgN/A
3:20 PM48 °FScattered clouds.12 mph62%29.74 "HgN/A
2:50 PM48 °FScattered clouds.12 mph62%29.74 "HgN/A
2:20 PM46 °FScattered clouds.13 mph66%29.71 "HgN/A
1:50 PM46 °FScattered clouds.14 mph66%29.71 "HgN/A
1:20 PM46 °FScattered clouds.16 mph66%29.71 "HgN/A
12:50 PM45 °FScattered clouds.18 mph71%29.68 "HgN/A
12:20 PM45 °FScattered clouds.18 mph71%29.68 "HgN/A
11:50 AM45 °FScattered clouds.20 mph76%29.68 "HgN/A
11:20 AM45 °FScattered clouds.17 mph76%29.65 "HgN/A
10:50 AM45 °FScattered clouds.15 mph71%29.65 "HgN/A
10:20 AM45 °FScattered clouds.15 mph81%29.65 "HgN/A
9:50 AM43 °FBroken clouds.14 mph87%29.65 "HgN/A
9:20 AM41 °FPartly sunny.14 mph93%29.65 "HgN/A
Weather by CustomWeather, © 2016

See weather overviewHow to use our weather pages